Tracking 19484 objects as of 20-Jan-2019
HD Live streaming from Space Station
objects crossing your sky now

CICERO 10

Track CICERO 10 now!
10-day predictions


NORAD ID: 43690
Int'l Code: 2018-088A
Perigee: 503.3 km
Apogee: 526.5 km
Inclination: 85.0 °
Period: 94.8 minutes
Semi major axis: 6885 km
RCS: Unknown
Launch date: November 11, 2018
Source: United States (US)
Launch site: Rocket Lab Launch Complex (RLLC)
aabbcc
Your satellite tracking list
Your tracking list is empty




NASA's NSSDC Master Catalog

Two Line Element Set (TLE):
1 43690U 18088A   19019.47750429  .00000753  00000-0  33602-4 0  9998
2 43690  85.0364  57.3744 0016868  45.1599 315.1009 15.19359382 10536
Source of the keplerian elements: AFSPC